Weather History for Ohio State University, OH

Change the Weather History Date:

Monday, May 12, 2014

  Actual Average Record
Temperature  
Mean Temperature 73 °F -  
Max Temperature 84 °F 69 °F 87 °F (2000)
Min Temperature 62 °F 48 °F 36 °F (2013)
Cooling Degree Days 8    
Growing Degree Days 23 (Base 50)    
Moisture  
Dew Point 64 °F    
Average Humidity 85    
Maximum Humidity 100    
Minimum Humidity 53    
Precipitation  
Precipitation 1.21 in - - ()
Sea Level Pressure  
Sea Level Pressure 30.05 in    
Wind  
Wind Speed 6 mph (South)    
Max Wind Speed 16 mph    
Max Gust Speed 24 mph    
Visibility 7 miles    
Events Fog , Rain , Thunderstorm    
Averages and records for this station are not official NWS values.
T = Trace of Precipitation, MM = Missing Value Source: NWS Daily Summary

Daily Weather History Graph

Daily Weather History Graph

Search for Another Location

Airport:

Trip Planner

Search our weather history database for the weather conditions in past years. The results will help you decide how hot, cold, wet, or windy it might be!

Date:

Astronomy

May. 12, 2014 Rise Set
Actual Time 6:19 AM EDT 8:38 PM EDT
Civil Twilight 5:49 AM EDT 9:08 PM EDT
Nautical Twilight 5:11 AM EDT 9:46 PM EDT
Astronomical Twilight 4:30 AM EDT 10:27 PM EDT
Moon 6:34 PM EDT (5/12) 4:58 AM EDT (5/12)
Length of Visible Light 15h 19m
Length of Day
14h 18m
Waxing Gibbous, 95% of the Moon is Illuminated
May 12
Waxing Gibbous
May 14
Full
May 21
Last Quarter
May 28
New
Jun 5
First Quarter

Hourly Weather History & Observations

Time (EDT) Temp. Heat Index Dew Point Humidity Pressure Visibility Wind Dir Wind Speed Gust Speed Precip Events Conditions
12:50 AM 62.6 °F - 62.6 °F 100% 30.08 in 7.0 mi East 3.5 mph - 0.00 in Rain , Thunderstorm Light Rain
12:53 AM 63.0 °F - 62.1 °F 97% 30.07 in 7.0 mi ESE 4.6 mph - 0.00 in Rain , Thunderstorm Light Rain
1:13 AM 63.0 °F - 62.1 °F 97% 30.05 in 9.0 mi East 4.6 mph - 0.00 in   Mostly Cloudy
1:42 AM 64.9 °F - 63.0 °F 93% 30.05 in 9.0 mi Calm Calm - 0.00 in Rain , Thunderstorm Light Rain
1:53 AM 64.9 °F - 63.0 °F 93% 30.05 in 6.0 mi South 4.6 mph - 0.01 in Rain , Thunderstorm Light Rain
2:09 AM 64.0 °F - 63.0 °F 96% 30.07 in 5.0 mi NW 8.1 mph - 0.02 in Rain , Thunderstorm Light Thunderstorms and Rain
2:18 AM 64.0 °F - 63.0 °F 96% 30.08 in 1.2 mi Calm Calm - 0.18 in Rain , Thunderstorm Heavy Thunderstorms and Rain
2:26 AM 64.0 °F - 63.0 °F 96% 30.06 in 0.5 mi East 5.8 mph - 0.43 in Fog , Rain , Thunderstorm Heavy Thunderstorms and Rain
2:31 AM 64.0 °F - 63.0 °F 96% 30.06 in 1.2 mi East 5.8 mph - 0.46 in Rain , Thunderstorm Heavy Thunderstorms and Rain
2:35 AM 64.0 °F - 63.0 °F 96% 30.06 in 3.0 mi East 10.4 mph - 0.46 in Rain , Thunderstorm Light Thunderstorms and Rain
2:53 AM 64.0 °F - 62.1 °F 93% 30.04 in 10.0 mi East 10.4 mph - 0.46 in Thunderstorm Overcast
3:02 AM 64.0 °F - 62.1 °F 93% 30.04 in 10.0 mi East 10.4 mph - N/A   Overcast
3:53 AM 64.0 °F - 62.1 °F 93% 30.01 in 10.0 mi ESE 6.9 mph - N/A   Mostly Cloudy
4:03 AM 64.0 °F - 62.1 °F 93% 30.04 in 10.0 mi SE 6.9 mph - N/A Thunderstorm Mostly Cloudy
4:24 AM 64.0 °F - 62.1 °F 93% 30.05 in 6.0 mi North - - 0.02 in Rain , Thunderstorm Light Thunderstorms and Rain
4:29 AM 64.0 °F - 62.1 °F 93% 30.07 in 2.5 mi WNW 12.7 mph - 0.11 in Rain , Thunderstorm Heavy Thunderstorms and Rain
4:34 AM 64.0 °F - 62.1 °F 93% 30.07 in 1.0 mi West 6.9 mph - 0.30 in Rain , Thunderstorm Heavy Thunderstorms and Rain
4:36 AM 64.0 °F - 62.1 °F 93% 30.06 in 0.8 mi WNW 5.8 mph - 0.34 in Rain , Thunderstorm Heavy Thunderstorms and Rain
4:45 AM 64.0 °F - 63.0 °F 96% 30.07 in 2.0 mi WNW 5.8 mph - 0.37 in Rain , Thunderstorm Thunderstorms and Rain
4:53 AM 64.0 °F - 63.0 °F 96% 30.05 in 3.0 mi WNW 3.5 mph - 0.40 in Rain , Thunderstorm Thunderstorms and Rain
5:04 AM 64.0 °F - 63.0 °F 96% 30.07 in 3.0 mi Calm Calm - 0.03 in Rain , Thunderstorm Rain
5:10 AM 63.0 °F - 63.0 °F 100% 30.07 in 2.5 mi Calm Calm - 0.06 in Rain Heavy Rain
5:19 AM 63.0 °F - 62.1 °F 97% 30.07 in 3.0 mi Calm Calm - 0.08 in Rain , Thunderstorm Thunderstorms and Rain
5:35 AM 63.0 °F - 63.0 °F 100% 30.07 in 2.5 mi Calm Calm - 0.15 in Rain Rain
5:53 AM 63.0 °F - 62.1 °F 97% 30.04 in 4.0 mi SE 8.1 mph - 0.22 in Rain , Thunderstorm Thunderstorms and Rain
6:10 AM 63.0 °F - 62.1 °F 97% 30.06 in 6.0 mi South 5.8 mph - 0.04 in Rain Rain
6:53 AM 64.0 °F - 63.0 °F 96% 30.05 in 10.0 mi SSE 4.6 mph - 0.06 in   Mostly Cloudy
7:30 AM 64.0 °F - 63.0 °F 96% 30.07 in 7.0 mi South 5.8 mph - N/A   Overcast
7:49 AM 64.4 °F - 62.6 °F 94% 30.07 in 7.0 mi SSE 4.6 mph - N/A   Overcast
7:53 AM 64.0 °F - 63.0 °F 96% 30.06 in 7.0 mi Variable 3.5 mph - N/A   Overcast
8:30 AM 66.0 °F - 63.0 °F 90% 30.08 in 10.0 mi Variable 5.8 mph - N/A   Overcast
8:50 AM 66.2 °F - 64.4 °F 94% 30.08 in 10.0 mi South 5.8 mph - N/A   Partly Cloudy
8:53 AM 66.9 °F - 64.0 °F 90% 30.07 in 10.0 mi South 5.8 mph - N/A   Partly Cloudy
10:53 AM 71.1 °F - 66.0 °F 84% 30.07 in 10.0 mi SSE 10.4 mph - 0.06 in   Mostly Cloudy
11:53 AM 75.9 °F - 66.0 °F 71% 30.07 in 10.0 mi South 12.7 mph - N/A   Clear
12:42 PM 78.1 °F - 66.9 °F 68% 30.09 in 10.0 mi SSW 16.1 mph 24.2 mph N/A   Mostly Cloudy
12:53 PM 78.1 °F - 66.9 °F 68% 30.07 in 10.0 mi SSW 15.0 mph - N/A   Mostly Cloudy
1:15 PM 79.0 °F - 66.9 °F 66% 30.08 in 10.0 mi SW 16.1 mph - N/A   Scattered Clouds
1:53 PM 81.0 °F 83.8 °F 68.0 °F 65% 30.06 in 10.0 mi SSW 15.0 mph 21.9 mph N/A   Scattered Clouds
2:53 PM 82.0 °F 84.9 °F 68.0 °F 62% 30.06 in 10.0 mi SW 16.1 mph - N/A   Mostly Cloudy
3:53 PM 84.0 °F 86.5 °F 66.9 °F 56% 30.02 in 10.0 mi SW 15.0 mph 23.0 mph N/A   Scattered Clouds
4:53 PM 82.9 °F 85.0 °F 66.0 °F 56% 30.00 in 10.0 mi WSW 13.8 mph - N/A   Mostly Cloudy
5:53 PM 84.0 °F 85.8 °F 64.9 °F 53% 30.00 in 10.0 mi SSW 16.1 mph 23.0 mph N/A   Partly Cloudy
6:53 PM 82.9 °F 84.4 °F 64.0 °F 53% 29.99 in 10.0 mi SW 13.8 mph 20.7 mph N/A   Partly Cloudy
7:53 PM 81.0 °F 82.7 °F 64.9 °F 58% 29.98 in 10.0 mi SSW 5.8 mph - N/A   Clear
8:53 PM 78.1 °F - 64.0 °F 62% 29.99 in 10.0 mi SSW 4.6 mph - N/A   Clear
9:53 PM 78.1 °F - 64.9 °F 64% 30.01 in 10.0 mi South 6.9 mph - N/A   Mostly Cloudy
11:53 PM 75.0 °F - 66.0 °F 73% 30.04 in 10.0 mi South 3.5 mph - N/A   Mostly Cloudy